This is the latest recevied weather packets stored in our database for station/object HS5AU-13. If no packets are shown the sender has not sent any weather packets the latest 1 day(s).
| Time | Temp. | Humidity | Pressure | Rain* | Wind** | Luminosity | Snow |
|---|---|---|---|---|---|---|---|
| 1788653107 | 23.89° C | 99% | 1001.9 hPa | 0 mm | - | 93 W/m² | - |
| 1788652507 | 23.33° C | 99% | 1002 hPa | 0 mm | - | 98 W/m² | - |
| 1788651907 | 23.33° C | 99% | 1002.2 hPa | 0 mm | - | 62 W/m² | - |
| 1788651307 | 23.33° C | 99% | 1002.3 hPa | 0 mm | - | 29 W/m² | - |
| 1788650707 | 22.78° C | 99% | 1002 hPa | 0 mm | - | 15 W/m² | - |
| 1788650107 | 23.33° C | 99% | 1002.3 hPa | 0 mm | - | 4 W/m² | - |
| 1788649507 | 23.33° C | 99% | 1002.1 hPa | 0 mm | - | 2 W/m² | - |
| 1788648907 | 22.78° C | 99% | 1002.1 hPa | 0 mm | - | 2 W/m² | - |
| 1788648307 | 22.78° C | 99% | 1001.8 hPa | 0 mm | - | 2 W/m² | - |
| 1788647707 | 23.33° C | 99% | 1001.9 hPa | 0 mm | - | 2 W/m² | - |
| 1788647107 | 22.78° C | 99% | 1002 hPa | 0 mm | - | 2 W/m² | - |
| 1788646507 | 22.78° C | 99% | 1002 hPa | 0 mm | - | 2 W/m² | - |
| 1788645907 | 23.33° C | 99% | 1002 hPa | 0 mm | - | 2 W/m² | - |
| 1788645307 | 23.33° C | 99% | 1002.1 hPa | 0 mm | - | 2 W/m² | - |
| 1788644707 | 23.33° C | 99% | 1002.3 hPa | 0 mm | - | 2 W/m² | - |
| 1788644107 | 23.33° C | 99% | 1002 hPa | 0 mm | - | 2 W/m² | - |
| 1788643507 | 23.33° C | 99% | 1002 hPa | 0 mm | - | 2 W/m² | - |
| 1788642907 | 23.33° C | 99% | 1002.1 hPa | 0 mm | - | 2 W/m² | - |
| 1788642307 | 23.33° C | 98% | 1002.2 hPa | 0 mm | - | 2 W/m² | - |
| 1788641707 | 23.33° C | 98% | 1002.1 hPa | 0 mm | - | 2 W/m² | - |
| 1788641107 | 23.33° C | 98% | 1002.1 hPa | 0 mm | - | 2 W/m² | - |
| 1788640507 | 23.33° C | 98% | 1002.3 hPa | 0 mm | - | 2 W/m² | - |
| 1788639907 | 23.33° C | 97% | 1002.7 hPa | 0 mm | - | 2 W/m² | - |
| 1788639307 | 23.33° C | 96% | 1002.6 hPa | 0 mm | - | 2 W/m² | - |
| 1788638707 | 23.33° C | 96% | 1002.7 hPa | 0 mm | - | 2 W/m² | - |
* Rain latest hour (hover to see other rain measurements)
** Current wind speed in m/s (hover to see current wind gust speed)